[[{"header":{"parameterUnit":"m.s-1","parameterCategory":1,"la1":30.2991,"la2":30.254,"lo1":-89.0895,"lo2":-89.0444,"dy":0.0017,"dx":0.0017,"nx":28,"ny":28,"refTime":"2026-01-03T03:00:00:Z","depth":0,"parameterNumber":2,"parameterNumberName":"U-component_of_WINDS"},"data":[0,0,0,0,0,0,0,0,0,0,0,0,0,0,0,0,0,0,0,0,0,0,0,0,0,0,0,0,0,0,0,0,0,0,0,0,0,0,0,0,0,0,0,0,0,0,0,0,0,0,0,0,0,0,0,0,0,0,2.6531,2.6531,0,2.6612,2.6612,2.6613,2.6589,2.6587,2.6585,2.6584,2.6675,2.6679,2.6683,0,0,0,0,0,0,0,0,0,0,0,0,0,2.6364,2.6367,2.6531,2.6532,2.6533,2.6611,2.6612,2.6614,2.6589,2.6587,2.6585,2.6583,2.6674,2.6678,2.6683,0,0,0,0,0,0,0,0,0,0,0,0,0,2.644,2.6368,2.653,2.653,2.653,2.6611,2.6613,2.6614,2.659,2.6587,2.6584,2.6582,2.6672,2.6678,2.6684,2.6773,0,0,2.6702,2.6705,0,0,0,0,0,0,0,0,2.6435,2.6446,2.6529,2.653,2.6531,2.6587,2.6587,2.6667,2.659,2.6567,2.6584,2.6581,2.6648,2.6656,2.6677,2.6777,2.6781,2.6703,2.6706,2.6709,2.6711,0,0,0,0,0,0,0,2.643,2.6442,2.6563,2.653,2.6531,2.6528,2.6536,2.6602,2.6622,2.6569,2.6567,2.6577,2.6648,2.6671,2.6679,2.6782,2.6703,2.6708,2.6712,2.6714,2.6962,2.6965,0,0,0,0,0,0,2.6423,2.6438,2.656,2.6565,2.6475,2.6533,2.6542,2.6572,2.6621,2.6626,2.6579,2.6576,2.6662,2.6672,2.6682,2.6791,2.6709,2.6715,2.6718,2.6959,2.6963,2.6966,0,0,0,0,0,0,2.642,2.6434,2.6557,2.6501,2.6517,2.6539,2.6572,2.6575,2.6598,2.6628,2.6632,2.6598,2.6661,2.6674,2.675,2.6794,2.6717,2.6723,2.6956,2.696,2.6964,2.7008,0,0,0,0,0,0,2.6415,2.6433,2.6465,2.6502,2.652,2.6621,2.6575,2.6578,2.6607,2.6603,2.6647,2.6652,2.666,2.6742,2.6756,2.6801,2.6728,2.6952,2.6958,2.6963,2.7003,2.7014,2.7023,0,0,0,0,0,2.6409,2.6475,2.6466,2.6481,2.6559,2.6623,2.6634,2.6639,2.6611,2.6644,2.6664,2.6651,2.6787,2.675,2.6766,2.6813,2.6949,2.6956,2.6962,2.6999,2.7012,2.7023,0,0,0,0,0,0,2.6445,2.648,2.6471,2.655,2.6584,2.6619,2.6661,2.6652,2.6696,2.6691,2.6698,2.6708,2.6787,2.6808,2.6766,2.6903,2.6864,2.6875,2.6886,2.6899,2.6908,2.6902,2.6733,0,0,0,0,0,2.6462,2.6508,2.6537,2.6605,2.6622,2.6639,2.6667,2.6668,2.6704,2.6719,2.6744,2.6782,2.6834,2.6867,2.6916,2.7006,2.7017,2.7047,2.7057,2.7065,2.7074,2.7125,2.714,2.6988,2.6988,2.6987,0,0,2.6498,2.6523,2.6552,2.6613,2.6639,2.669,2.6651,2.6706,2.6745,2.6728,2.6801,2.6822,2.6865,2.6949,2.6987,2.6969,2.7118,2.7073,2.7079,2.7084,2.7134,2.7148,2.7161,2.6992,2.6991,2.6991,0,0,2.6589,2.6612,2.6671,2.6698,2.6737,2.6748,2.6763,2.68,2.6812,2.6885,2.6874,2.6922,2.7009,2.7041,2.7068,2.7174,2.7164,2.719,2.7242,2.7292,2.7304,2.7315,2.7354,2.7368,2.7199,2.7199,2.7199,0,2.6629,2.6702,2.6704,2.676,2.6788,2.6773,2.6836,2.6862,2.6917,2.6938,2.6916,2.7027,2.7055,2.7147,2.7172,2.7195,2.7214,2.7185,2.7301,2.7312,2.7322,2.736,2.7375,2.7202,2.7202,2.7201,2.7201,0,2.6751,2.6803,2.6847,2.6897,2.6931,2.699,2.7003,2.7037,2.7036,2.705,2.7127,2.716,2.7216,2.7238,2.7237,2.7331,2.7318,2.7299,2.726,2.734,2.7375,2.739,2.7206,2.7205,2.7204,2.7203,0,0,2.6867,2.6917,2.6934,2.6957,2.7,2.7042,2.7102,2.7154,2.7184,2.7223,2.7275,2.735,2.7333,2.7364,2.7368,2.7412,2.7496,2.7388,2.7389,2.7408,2.7603,2.7618,2.7635,2.7489,2.7492,2.7494,2.76,0,2.6963,2.7064,2.7068,2.7163,2.7212,2.7199,2.7252,2.7286,2.7302,2.7348,2.7367,2.742,2.7392,2.7411,2.7454,2.7476,2.7535,2.7469,2.7541,2.7543,2.7531,2.7653,2.7668,2.7767,2.7614,2.7616,2.7618,0,2.7088,2.7128,2.7227,2.7264,2.7285,2.7332,2.7381,2.7425,2.7465,2.7473,2.7509,2.7506,2.7571,2.753,2.7621,2.7575,2.7605,2.7621,2.7625,2.7633,2.7586,2.7665,2.7798,2.7813,2.764,2.7638,2.7636,0,2.7164,2.7243,2.7313,2.7334,2.7379,2.7412,2.7433,2.747,2.7502,2.7546,2.7568,2.762,2.7649,2.7691,2.7704,2.7672,2.7796,2.7755,2.7807,2.7807,2.7834,2.7832,2.7975,2.7852,2.7852,2.7851,2.7851,0,2.7271,2.7332,2.7348,2.7391,2.746,2.7466,2.7535,2.7555,2.7588,2.7637,2.763,2.7677,2.7691,2.7741,2.7752,2.7827,2.784,2.7851,2.7853,2.7852,2.7851,2.7872,2.7866,2.7855,2.7854,2.7854,2.7853,0,2.7367,2.738,2.7455,2.7492,2.7503,2.7552,2.7585,2.7628,2.7643,2.7705,2.7721,2.7745,2.7804,2.7821,2.7893,2.79,2.7989,2.7984,2.7974,2.7975,2.8026,2.8022,2.8189,2.8212,2.8073,2.8074,2.8075,0,2.7435,2.7481,2.7523,2.7554,2.7576,2.7626,2.7658,2.7667,2.7701,2.7751,2.7789,2.7846,2.7892,2.7988,2.8014,2.8069,2.8067,2.8122,2.8076,2.8073,2.807,2.8067,2.8073,2.8131,2.8132,2.8134,2.8135,0,2.7554,2.7558,2.7603,2.7652,2.769,2.7729,2.7767,2.7794,2.7808,2.7848,2.7906,2.7942,2.8015,2.8073,2.8129,2.8154,2.8149,2.8149,2.8164,2.8164,2.8156,2.8162,2.7999,2.8145,2.8144,2.8143,2.8143,2.8142,2.7639,2.7681,2.7716,2.7768,2.7797,2.7833,2.7875,2.7895,2.7943,2.8001,2.8004,2.8069,2.811,2.8185,2.8213,2.8266,2.825,2.8272,2.8277,2.8283,2.8288,2.8147,2.8276,2.8276,2.8275,2.8275,2.8275,0,2.7759,2.7782,2.7829,2.7881,2.7922,2.791,2.7952,2.7988,2.8044,2.8082,2.8128,2.8197,2.8254,2.8285,2.8342,2.8379,2.8378,2.8394,2.8392,2.8398,2.8298,2.8279,2.8394,2.8394,2.8394,2.8394,2.8394,2.8394,2.7826,2.7896,2.7905,2.7991,2.8014,2.8075,2.8101,2.8135,2.8165,2.8241,2.8288,2.8307,2.8343,2.8403,2.8456,2.8464,2.8486,2.8505,2.8511,2.8417,2.8405,2.8393,2.8376,2.8509,2.8509,2.8607,2.8608,2.8609]},{"header":{"parameterUnit":"m.s-1","parameterCategory":1,"la1":30.2991,"la2":30.254,"lo1":-89.0895,"lo2":-89.0444,"dy":0.0017,"dx":0.0017,"nx":28,"ny":28,"refTime":"2026-01-03T03:00:00:Z","depth":0,"parameterNumber":3,"parameterNumberName":"V-component_of_WINDS"},"data":[0,0,0,0,0,0,0,0,0,0,0,0,0,0,0,0,0,0,0,0,0,0,0,0,0,0,0,0,0,0,0,0,0,0,0,0,0,0,0,0,0,0,0,0,0,0,0,0,0,0,0,0,0,0,0,0,0,0,2.2274,2.2275,0,2.237,2.2371,2.2372,2.2376,2.2375,2.2373,2.2372,2.2475,2.2479,2.2483,0,0,0,0,0,0,0,0,0,0,0,0,0,2.2099,2.2102,2.2274,2.2275,2.2276,2.237,2.2371,2.2373,2.2376,2.2375,2.2373,2.2372,2.2474,2.2478,2.2483,0,0,0,0,0,0,0,0,0,0,0,0,0,2.2183,2.2103,2.2274,2.2289,2.2292,2.237,2.2371,2.2373,2.2376,2.2375,2.2373,2.2371,2.2472,2.2478,2.2484,2.2554,0,0,2.2501,2.2504,0,0,0,0,0,0,0,0,2.2178,2.219,2.2286,2.2288,2.2291,2.2359,2.2347,2.2434,2.2377,2.2344,2.2372,2.237,2.2438,2.2447,2.2469,2.2559,2.2563,2.2502,2.2505,2.2508,2.2509,0,0,0,0,0,0,0,2.2172,2.2185,2.2312,2.2287,2.2291,2.2293,2.2303,2.2364,2.24,2.2347,2.2347,2.2359,2.2439,2.2463,2.2471,2.2565,2.2501,2.2507,2.251,2.2512,2.2721,2.2723,0,0,0,0,0,0,2.2163,2.2181,2.2309,2.2315,2.2229,2.2298,2.2309,2.2339,2.2399,2.2407,2.236,2.2358,2.2454,2.2464,2.2475,2.2563,2.2508,2.2513,2.2516,2.2719,2.2722,2.2724,0,0,0,0,0,0,2.2159,2.2174,2.2305,2.2248,2.2265,2.2303,2.2337,2.2342,2.2366,2.2409,2.2416,2.2377,2.2453,2.2467,2.2535,2.2567,2.2516,2.2521,2.2716,2.272,2.2723,2.274,0,0,0,0,0,0,2.2154,2.2173,2.2199,2.2248,2.2268,2.2362,2.2338,2.2345,2.2375,2.2374,2.2427,2.2434,2.2453,2.2526,2.254,2.2574,2.2525,2.2714,2.2718,2.2722,2.2737,2.2743,2.2749,0,0,0,0,0,2.2148,2.22,2.22,2.2215,2.2301,2.2364,2.2375,2.2394,2.2377,2.2405,2.2433,2.2433,2.2561,2.2533,2.2549,2.2585,2.2712,2.2717,2.2721,2.2734,2.2742,2.2749,0,0,0,0,0,0,2.2154,2.2207,2.2207,2.2277,2.2316,2.2364,2.2399,2.2402,2.2447,2.2444,2.2467,2.2479,2.2547,2.2573,2.2541,2.2658,2.2635,2.2643,2.2639,2.2647,2.2653,2.2646,2.253,0,0,0,0,0,2.2163,2.2209,2.2253,2.231,2.233,2.2361,2.2389,2.24,2.2442,2.2459,2.2492,2.2534,2.2584,2.2617,2.2665,2.274,2.2753,2.2773,2.2779,2.2784,2.2791,2.2835,2.2845,2.2739,2.2739,2.2739,0,0,2.2183,2.2218,2.2245,2.2312,2.2344,2.2392,2.2375,2.2426,2.2463,2.2467,2.2534,2.256,2.2608,2.2681,2.2714,2.2704,2.2823,2.279,2.2793,2.2798,2.2841,2.2851,2.286,2.2742,2.2742,2.2741,0,0,2.2245,2.2274,2.2327,2.2358,2.2406,2.2427,2.2439,2.2488,2.2505,2.2572,2.2577,2.2622,2.2707,2.2742,2.2771,2.2847,2.285,2.2863,2.2895,2.2938,2.2947,2.2954,2.2984,2.2994,2.2869,2.2869,2.287,0,2.2264,2.2336,2.2353,2.2405,2.2436,2.2441,2.2495,2.2526,2.2587,2.2609,2.2596,2.2704,2.2737,2.2819,2.2838,2.2861,2.2878,2.2857,2.2943,2.2951,2.2959,2.2987,2.2998,2.2871,2.2871,2.2871,2.287,0,2.2359,2.2408,2.2445,2.2503,2.2538,2.2591,2.2618,2.2652,2.266,2.2683,2.2753,2.2792,2.285,2.287,2.2879,2.2954,2.2947,2.2938,2.2916,2.297,2.2997,2.3008,2.2873,2.2872,2.2872,2.2872,0,0,2.2427,2.2495,2.2508,2.2536,2.2589,2.2629,2.2683,2.2738,2.2768,2.281,2.2858,2.293,2.2924,2.2957,2.297,2.3007,2.3069,2.2995,2.2997,2.3009,2.3157,2.3164,2.3176,2.307,2.3072,2.3074,2.3154,0,2.2496,2.259,2.2609,2.2692,2.274,2.2746,2.2794,2.2833,2.2856,2.2902,2.2928,2.298,2.2966,2.2986,2.3023,2.3053,2.3099,2.3048,2.3117,2.3119,2.3106,2.319,2.3198,2.3271,2.3164,2.3166,2.3168,0,2.2588,2.2633,2.2721,2.277,2.2791,2.2833,2.2886,2.2929,2.2974,2.2989,2.3026,2.3036,2.3095,2.3069,2.3152,2.3117,2.3146,2.3166,2.3169,2.3178,2.3148,2.3203,2.3295,2.3307,2.3184,2.3183,2.3182,0,2.2632,2.2714,2.2778,2.2801,2.2859,2.2889,2.2915,2.2959,2.2992,2.3039,2.3061,2.3114,2.3144,2.3187,2.3211,2.319,2.3294,2.3269,2.331,2.3309,2.3333,2.3331,2.3432,2.3349,2.3348,2.3348,2.3348,0,2.2708,2.2762,2.2798,2.2838,2.2899,2.2921,2.2982,2.3008,2.3047,2.3094,2.3102,2.3146,2.3175,2.3224,2.3244,2.3311,2.3324,2.3339,2.3344,2.334,2.3338,2.3361,2.3357,2.3351,2.335,2.335,2.3349,0,2.2767,2.2793,2.2864,2.2913,2.2927,2.2971,2.3014,2.3054,2.3078,2.3136,2.3152,2.3189,2.3247,2.3275,2.3347,2.3361,2.3438,2.3439,2.3422,2.3425,2.3465,2.3461,2.3585,2.3604,2.3506,2.3507,2.3508,0,2.2815,2.2857,2.2911,2.2942,2.2969,2.3018,2.3052,2.3075,2.311,2.3166,2.32,2.3258,2.3306,2.3398,2.3434,2.3489,2.3493,2.3533,2.3502,2.3496,2.3496,2.3494,2.35,2.3539,2.354,2.354,2.3541,0,2.2897,2.2908,2.2955,2.3008,2.3047,2.309,2.3132,2.3157,2.3188,2.3227,2.3286,2.3323,2.3397,2.3455,2.3514,2.3543,2.3549,2.355,2.3563,2.3559,2.3549,2.3558,2.344,2.3548,2.3547,2.3546,2.3546,2.3546,2.2953,2.2992,2.3036,2.3089,2.3123,2.3163,2.3203,2.3232,2.3281,2.3342,2.3353,2.3416,2.3464,2.3543,2.3574,2.3625,2.3617,2.3635,2.364,2.3644,2.3647,2.3539,2.3636,2.3636,2.3636,2.3635,2.3635,0,2.3038,2.3067,2.3116,2.3174,2.3217,2.3216,2.3263,2.3299,2.3354,2.3397,2.3444,2.3513,2.357,2.361,2.3669,2.3702,2.3707,2.3717,2.3716,2.3723,2.365,2.3634,2.3713,2.3713,2.3713,2.3713,2.3713,2.3713,2.3087,2.3153,2.3169,2.3253,2.3283,2.3343,2.3371,2.3408,2.3443,2.3519,2.3566,2.3591,2.3634,2.3696,2.375,2.376,2.3783,2.3794,2.3805,2.3736,2.3728,2.372,2.3706,2.3798,2.3798,2.3874,2.3874,2.3875]}]]